This demonstration page uses our WeatherBlox Daily Observations layout. Learn more.

Left ArrowRight Arrow

39.51506, -84.39828

Hourly Observations for March 30, 2016

Temp ( °F °C ) Dew Point ( °F °C ) Humidity (%) Winds ( mph kmh ) Pressure ( in mb ) Visibility ( mi km ) Precip ( " mm )
12:15 am 00:15 Clear 37 2.9 32 -0.2 80 80 N 3 6 30.27 1025 10 16 N/A
12:35 am 00:35 Clear 37 2.6 32 undefined 83 83 NNE 3 6 30.27 1025 10 16 N/A
12:55 am 00:55 Clear 37 2.6 32 undefined 83 83 N 3 6 30.27 1025 10 16 N/A
1:15 am 01:15 Clear 37 2.6 32 undefined 83 83 N 3 6 30.27 1025 10 16 N/A
1:35 am 01:35 Clear 34 1.2 30 -1 85 85 N N/A 30.24 1024 10 16 N/A
1:55 am 01:55 Clear 37 2.6 32 0.1 84 84 N 3 6 30.27 1025 10 16 N/A
2:15 am 02:15 Clear 37 2.5 32 -0.1 83 83 N 3 6 30.24 1024 10 16 N/A
2:35 am 02:35 Clear 34 1.2 30 -1 85 85 N N/A 30.24 1024 10 16 N/A
2:55 am 02:55 Clear 35 1.7 31 -0.3 87 87 N N/A 30.24 1024 10 16 N/A
3:20 am 03:20 Clear 34 1.2 30 -1 85 85 N 3 6 30.21 1023 10 16 N/A
3:35 am 03:35 Clear 34 1.2 31 -0.7 87 87 N 5 7 30.21 1023 10 16 N/A
3:55 am 03:55 Clear 34 1.2 31 -0.8 87 87 NNW 3 6 30.21 1023 10 16 N/A
4:15 am 04:15 Clear 34 1.2 31 -0.8 87 87 N N/A 30.21 1023 10 16 N/A
4:40 am 04:40 Clear 34 1.2 30 -0.9 86 86 N N/A 30.21 1023 10 16 N/A
4:55 am 04:55 Clear 34 1.2 30 -0.9 86 86 N N/A 30.21 1023 10 16 N/A
5:15 am 05:15 Clear 34 1.2 31 -0.8 87 87 N N/A 30.18 1022 10 16 N/A
5:40 am 05:40 Clear 34 1.2 31 -0.8 87 87 N N/A 30.18 1022 10 16 N/A
5:55 am 05:55 Clear 34 1.2 31 -0.7 87 87 N N/A 30.18 1022 10 16 N/A
6:20 am 06:20 Clear 34 1.2 31 -0.8 87 87 N N/A 30.18 1022 10 16 N/A
6:35 am 06:35 Clear 34 1.2 31 -0.7 87 87 N N/A 30.18 1022 10 16 N/A
6:55 am 06:55 Clear 34 1.2 31 -0.8 87 87 N N/A 30.18 1022 10 16 N/A
7:15 am 07:15 Clear 34 1.2 31 -0.7 87 87 N N/A 30.18 1022 10 16 N/A
7:35 am 07:35 Sunny 34 1.2 31 -0.8 87 87 N N/A 30.18 1022 10 16 N/A
7:55 am 07:55 Sunny 34 1.2 31 -0.8 87 87 N N/A 30.18 1022 10 16 N/A
8:20 am 08:20 Sunny 37 2.6 33 0.3 85 85 N N/A 30.15 1021 10 16 N/A
8:35 am 08:35 Sunny 37 2.6 33 0.3 85 85 N N/A 30.15 1021 10 16 N/A
8:55 am 08:55 Sunny 40 4.7 36 2.3 85 85 N N/A 30.12 1020 10 16 N/A
9:15 am 09:15 Sunny 47 8.5 35 1.6 62 62 N N/A 30.12 1020 10 16 N/A
9:35 am 09:35 Sunny 49 9.6 32 -0.2 51 51 S 6 9 30.12 1020 10 16 N/A
9:55 am 09:55 Sunny 52 10.9 32 0.1 48 48 S 7 11 30.12 1020 10 16 N/A
10:15 am 10:15 Sunny 55 12.5 32 0.1 43 43 S 6 9 30.12 1020 10 16 N/A
10:35 am 10:35 Sunny 56 13.5 32 0.1 40 40 S 3 6 30.12 1020 10 16 N/A
10:55 am 10:55 Sunny 57 13.8 30 -1 36 36 S 10 17 30.09 1019 10 16 N/A
11:15 am 11:15 Sunny 60 15.3 32 0.2 36 36 S 10 17 30.09 1019 10 16 N/A
11:35 am 11:35 Sunny 61 16 30 -1 31 31 S 14 22 30.09 1019 10 16 N/A
11:55 am 11:55 Sunny 62 16.6 31 -0.8 31 31 SSW 13 20 30.03 1017 10 16 N/A
12:15 pm 12:15 Sunny 62 16.8 31 -0.4 31 31 SW 9 15 30.03 1017 10 16 N/A
12:35 pm 12:35 Sunny 64 18 31 -0.4 29 29 S 8 13 30.00 1016 10 16 N/A
12:55 pm 12:55 Sunny 69 20.8 34 1.2 27 27 SSW 16 26 30.00 1016 10 16 N/A
1:15 pm 13:15 Sunny 69 20.8 32 0.2 25 25 SW 17 28 30.00 1016 10 16 N/A
1:35 pm 13:35 Sunny 69 20.8 33 0.3 26 26 SSW 18 30 29.97 1015 10 16 N/A
1:55 pm 13:55 Sunny 69 20.8 32 0.2 25 25 SSW 16 26 29.97 1015 10 16 N/A
2:15 pm 14:15 Sunny 70 21 32 0.2 25 25 SW 21 33 29.97 1015 10 16 N/A
2:35 pm 14:35 Sunny 71 21.7 34 1.1 26 26 SSW 16 26 29.94 1014 10 16 N/A
2:55 pm 14:55 Sunny 72 22.3 33 0.6 24 24 SSW 18 30 29.94 1014 10 16 N/A
3:15 pm 15:15 Partly Cloudy 74 23.6 34 1.3 23 23 SW 15 24 29.91 1013 10 16 N/A
3:35 pm 15:35 Partly Cloudy 74 23.6 35 1.4 23 23 S 17 28 29.91 1013 10 16 N/A
3:55 pm 15:55 Partly Cloudy 74 23.6 33 0.5 22 22 SW 17 28 29.88 1012 10 16 N/A
4:15 pm 16:15 Partly Cloudy 74 23.6 36 2 24 24 SSW 12 19 29.88 1012 10 16 N/A
4:35 pm 16:35 Mostly Cloudy 74 23.6 35 1.6 24 24 S 15 24 29.88 1012 10 16 N/A
4:55 pm 16:55 Partly Cloudy 74 23.6 35 1.4 23 23 S 12 19 29.85 1011 10 16 N/A
5:15 pm 17:15 Sunny 74 23.6 36 2 24 24 S 17 28 29.85 1011 10 16 N/A
5:35 pm 17:35 Sunny 74 23.6 37 2.6 25 25 S 15 24 29.85 1011 10 16 N/A
5:55 pm 17:55 Sunny 74 23.6 37 2.6 25 25 S 10 17 29.85 1011 10 16 N/A
6:15 pm 18:15 Sunny 74 23.6 40 4.2 28 28 S 13 20 29.83 1010 10 16 N/A
6:35 pm 18:35 Sunny 74 23.6 39 3.7 27 27 S 12 19 29.85 1011 10 16 N/A
6:55 pm 18:55 Mostly Cloudy 74 23.6 40 4.5 29 29 S 15 24 29.85 1011 10 16 N/A
7:15 pm 19:15 Partly Cloudy 72 22.3 40 4.4 31 31 S 16 26 29.83 1010 10 16 N/A
7:35 pm 19:35 Sunny 72 22 42 5.3 34 34 S 12 19 29.83 1010 10 16 N/A
7:55 pm 19:55 Partly Cloudy 72 22 42 5.5 34 34 S 12 19 29.83 1010 10 16 N/A
8:15 pm 20:15 Partly Cloudy 71 21.4 40 4.6 33 33 S 15 24 29.83 1010 10 16 N/A
8:35 pm 20:35 Partly Cloudy 69 20.8 40 4.5 34 34 S 10 17 29.83 1010 10 16 N/A
8:55 pm 20:55 Mostly Cloudy 69 20.8 41 4.8 35 35 S 10 17 29.83 1010 10 16 N/A
9:15 pm 21:15 Cloudy 69 20.8 41 5 36 36 S 9 15 29.83 1010 10 16 N/A
9:35 pm 21:35 Mostly Cloudy 69 20.8 42 5.5 37 37 S 12 19 29.83 1010 10 16 N/A
9:55 pm 21:55 Mostly Cloudy 69 20.8 42 5.4 37 37 S 13 20 29.83 1010 10 16 N/A
10:15 pm 22:15 Mostly Cloudy 69 20.8 39 4.1 34 34 S 9 15 29.83 1010 10 16 N/A
10:35 pm 22:35 Cloudy 69 20.8 39 4.1 34 34 S 8 13 29.83 1010 10 16 N/A
10:55 pm 22:55 Cloudy 69 20.8 39 3.7 33 33 SSW 10 17 29.80 1009 10 16 N/A
11:15 pm 23:15 Cloudy 69 20.8 40 4.4 34 34 NW 13 20 29.83 1010 10 16 N/A
11:35 pm 23:35 Cloudy 69 20.8 45 7.4 42 42 SSW 5 7 29.83 1010 10 16 N/A
11:55 pm 23:55 Cloudy 69 20.3 47 8.1 46 46 S 5 7 29.80 1009 10 16 N/A

Powered by AerisWeather